Location: Bonita
(45.4168°N, 122.7648°W)
Time: 11:50:25
(UTC+00:00)

Daily predictions for brighter satellites

Satellite Brightness Start Highest point End
(mag) Time Altitude Azimuth Time Altitude Azimuth Time Altitude Azimuth
NOSS 2-2 (D) 3.7 12:00:35 12° SSW 12:03:41 53° ESE 12:07:26 10° NE
CZ-2C R/B 2.8 12:00:33 10° N 12:04:20 60° WNW 12:07:45 12° SSW
Cosmos 1745 Rocket 4.1 12:02:49 10° NNW 12:08:56 58° W 12:14:59 10° S
USA 267 3.4 12:03:04 10° ESE 12:09:37 85° NE 12:16:12 10° NW
USA 102 4.3 12:08:34 10° S 12:13:01 21° SSW 12:14:16 18° WSW
Cosmos 1953 Rocket 3.9 12:10:03 10° NNW 12:14:21 45° W 12:18:35 10° SSW
CZ-4B R/B 2.5 12:11:43 10° SSE 12:14:49 46° ENE 12:17:51 10° N
Cosmos 1455 4.5 12:13:20 10° SSE 12:16:36 27° E 12:19:54 10° NNE
Landsat 5 3.7 12:14:02 10° S 12:17:50 44° W 12:21:48 10° NNW
Lacrosse 5 rocket 4.1 12:16:18 10° SSE 12:19:04 16° ESE 12:21:52 10° E
Cosmos 1300 2.9 12:15:33 10° SSW 12:19:17 52° WNW 12:23:02 10° N
SeaSat 1 2.9 12:16:11 10° NNE 12:21:07 65° ESE 12:26:01 10° SSW
Cosmos 2058 3.8 12:21:32 10° N 12:25:39 55° ENE 12:29:47 10° SSE
ADEOS Rocket 4.1 12:20:39 10° SSE 12:28:18 70° ENE 12:36:00 10° N
S3M 4.5 12:22:41 10° SSW 12:28:45 45° WNW 12:34:53 10° N
COSMOS 2406 4.3 12:25:15 10° NNW 12:30:49 51° ENE 12:36:20 10° SE
ERS-2 2.8 12:27:29 10° SSW 12:30:49 34° W 12:34:12 10° NNW
Cosmos 1844 3.9 12:34:25 10° SW 12:40:08 60° WNW 12:45:51 10° NNE
